Lambertville, MI

11:44 PM EDT on May 27, 2017 (GMT -0400)
Lambertville

Weather History for KDUH - December, 2012

Change the Weather History Date:

Sunday, December 9, 2012

  Actual Average (KTOL) Record (KTOL)
Temperature  
Mean Temperature 38 °F -  
Max Temperature 42 °F 38 °F 60 °F (1952)
Min Temperature 35 °F 22 °F -5 °F (1917)
Degree Days  
Heating Degree Days 26    
Moisture  
Dew Point 35 °F    
Average Humidity 85    
Maximum Humidity 93    
Minimum Humidity 75    
Precipitation  
Precipitation 0.00 in - - ()
Sea Level Pressure  
Sea Level Pressure 29.95 in    
Wind  
Wind Speed 6 mph (East)    
Max Wind Speed 14 mph    
Max Gust Speed 24 mph    
Visibility 6 miles    
Events Fog , Rain    
Averages and records for this station are not official NWS values.
T = Trace of Precipitation, MM = Missing Value Source: NWS Daily Summary

Daily Weather History Graph

Daily Weather History Graph

Search for Another Location

Airport or City:

Trip Planner

Search our weather history database for the weather conditions in past years. The results will help you decide how hot, cold, wet, or windy it might be!

Date:

Astronomy

Dec. 09, 2012 Rise Set
Actual Time 7:50 AM EST 5:03 PM EST
Civil Twilight 7:19 AM EST 5:35 PM EST
Nautical Twilight 6:44 AM EST 6:10 PM EST
Astronomical Twilight 6:10 AM EST 6:43 PM EST
Moon 3:19 AM EST (12/9) 2:12 PM EST (12/9)
Length of Visible Light 10h 16m
Length of Day
9h 13m
Waning Crescent, 19% of the Moon is Illuminated
Dec 9
Waning Crescent
Dec 13
New
Dec 20
First Quarter
Dec 28
Full
Jan 4
Last Quarter

Hourly Weather History & Observations

Time (EST) Temp. Windchill Dew Point Humidity Pressure Visibility Wind Dir Wind Speed Gust Speed Precip Events Conditions
12:15 AM 35.8 °F 33.0 °F 31.3 °F 84% 30.15 in 10.0 mi ENE 3.5 mph - N/A   Overcast
12:34 AM 36.5 °F 32.7 °F 31.3 °F 81% 30.15 in 10.0 mi ENE 4.6 mph - N/A   Overcast
12:55 AM 36.5 °F 31.8 °F 31.1 °F 81% 30.16 in 10.0 mi NE 5.8 mph - N/A   Overcast
1:15 AM 36.1 °F 30.6 °F 30.4 °F 80% 30.16 in 10.0 mi ENE 6.9 mph - N/A   Overcast
1:35 AM 36.0 °F 30.3 °F 30.2 °F 80% 30.15 in 10.0 mi ENE 6.9 mph - N/A   Overcast
1:55 AM 36.0 °F 32.1 °F 30.2 °F 80% 30.16 in 10.0 mi ENE 4.6 mph - N/A   Overcast
2:14 AM 35.8 °F 31.9 °F 30.6 °F 81% 30.15 in 10.0 mi ENE 4.6 mph - N/A   Overcast
2:35 AM 35.8 °F 30.9 °F 30.9 °F 82% 30.15 in 10.0 mi ENE 5.8 mph - N/A   Overcast
2:55 AM 36.0 °F 33.3 °F 31.5 °F 84% 30.16 in 10.0 mi ENE 3.5 mph - N/A   Overcast
3:15 AM 36.5 °F 31.8 °F 32.0 °F 84% 30.16 in 10.0 mi East 5.8 mph - N/A   Overcast
3:35 AM 37.4 °F 32.8 °F 32.0 °F 81% 30.15 in 10.0 mi ENE 5.8 mph - N/A   Overcast
3:55 AM 37.2 °F 31.9 °F 31.8 °F 81% 30.15 in 10.0 mi ENE 6.9 mph - N/A   Overcast
4:15 AM 37.4 °F 32.8 °F 31.6 °F 80% 30.14 in 10.0 mi East 5.8 mph - N/A   Overcast
4:35 AM 37.6 °F 32.3 °F 32.0 °F 80% 30.13 in 10.0 mi East 6.9 mph - N/A   Overcast
4:54 AM 37.4 °F 32.1 °F 32.0 °F 81% 30.13 in 10.0 mi East 6.9 mph - N/A   Overcast
5:15 AM 37.6 °F 30.5 °F 32.4 °F 81% 30.14 in 10.0 mi East 10.4 mph - N/A   Overcast
5:35 AM 37.8 °F 31.8 °F 32.5 °F 81% 30.13 in 10.0 mi East 8.1 mph - N/A   Overcast
5:55 AM 38.3 °F 33.2 °F 32.9 °F 81% 30.13 in 10.0 mi East 6.9 mph - N/A   Overcast
6:15 AM 38.7 °F 34.3 °F 32.5 °F 79% 30.14 in 10.0 mi East 5.8 mph - N/A   Overcast
6:35 AM 39.2 °F 33.0 °F 32.0 °F 75% 30.14 in 10.0 mi East 9.2 mph - N/A   Overcast
6:55 AM 39.2 °F 32.5 °F 32.0 °F 75% 30.13 in 10.0 mi East 10.4 mph 17.3 mph N/A   Overcast
7:15 AM 39.2 °F 33.0 °F 31.8 °F 75% 30.12 in 10.0 mi East 9.2 mph 19.6 mph N/A   Overcast
7:35 AM 39.0 °F 31.0 °F 32.0 °F 76% 30.10 in 10.0 mi East 13.8 mph 24.2 mph N/A   Overcast
7:55 AM 39.0 °F 31.0 °F 31.8 °F 75% 30.11 in 10.0 mi East 13.8 mph 18.4 mph N/A   Overcast
8:15 AM 39.2 °F 32.0 °F 32.0 °F 75% 30.11 in 10.0 mi East 11.5 mph 19.6 mph N/A   Overcast
8:35 AM 39.0 °F 32.3 °F 32.0 °F 76% 30.10 in 10.0 mi East 10.4 mph 19.6 mph N/A   Overcast
8:55 AM 39.0 °F 32.3 °F 32.0 °F 76% 30.09 in 10.0 mi East 10.4 mph 18.4 mph N/A   Overcast
9:14 AM 39.2 °F 33.0 °F 32.2 °F 76% 30.07 in 10.0 mi East 9.2 mph 17.3 mph N/A   Overcast
9:35 AM 39.4 °F 32.7 °F 32.5 °F 76% 30.07 in 10.0 mi East 10.4 mph 18.4 mph N/A   Overcast
9:55 AM 39.7 °F 32.7 °F 33.1 °F 77% 30.07 in 10.0 mi East 11.5 mph 20.7 mph N/A   Overcast
10:15 AM 39.6 °F 32.5 °F 33.1 °F 78% 30.06 in 10.0 mi East 11.5 mph 21.9 mph N/A   Overcast
10:35 AM 39.6 °F 33.0 °F 32.9 °F 77% 30.06 in 10.0 mi ESE 10.4 mph 17.3 mph N/A   Overcast
10:54 AM 39.6 °F 33.5 °F 33.1 °F 78% 30.04 in 10.0 mi East 9.2 mph 16.1 mph N/A   Light Drizzle
11:15 AM 39.7 °F 33.2 °F 33.3 °F 78% 30.03 in 10.0 mi East 10.4 mph 18.4 mph N/A Rain Light Rain
11:35 AM 39.2 °F 32.0 °F 34.2 °F 82% 30.01 in 2.5 mi East 11.5 mph 20.7 mph N/A   Haze
11:54 AM 38.7 °F 31.4 °F 35.1 °F 87% 29.99 in 2.5 mi East 11.5 mph 18.4 mph N/A   Overcast
12:15 PM 38.5 °F 32.1 °F 35.6 °F 89% 29.98 in 3.0 mi East 9.2 mph - N/A   Light Drizzle
12:34 PM 38.5 °F 33.4 °F 35.6 °F 89% 29.96 in 7.0 mi East 6.9 mph - N/A   Drizzle
12:55 PM 38.7 °F 31.8 °F 35.6 °F 89% 29.95 in 7.0 mi East 10.4 mph 17.3 mph N/A Rain Rain
1:15 PM 38.7 °F 33.6 °F 35.6 °F 89% 29.93 in 4.0 mi East 6.9 mph 19.6 mph N/A Rain Rain
1:34 PM 38.7 °F 32.4 °F 35.8 °F 89% 29.92 in 2.5 mi ESE 9.2 mph - N/A Rain Light Rain
1:55 PM 38.7 °F 31.4 °F 35.8 °F 89% 29.88 in 7.0 mi East 11.5 mph 19.6 mph N/A Rain Light Rain
2:15 PM 39.0 °F 31.8 °F 36.0 °F 89% 29.87 in 10.0 mi East 11.5 mph 17.3 mph N/A   Overcast
2:34 PM 38.8 °F 33.2 °F 35.8 °F 89% 29.87 in 4.0 mi East 8.1 mph - N/A Rain Rain
2:55 PM 38.8 °F 33.2 °F 36.0 °F 89% 29.85 in 5.0 mi East 8.1 mph - N/A Rain Light Rain
3:14 PM 38.8 °F 32.6 °F 36.1 °F 90% 29.85 in 5.0 mi East 9.2 mph - N/A Rain Light Rain
3:35 PM 39.2 °F 34.2 °F 36.5 °F 90% 29.85 in 5.0 mi East 6.9 mph - N/A Rain Rain
3:55 PM 39.4 °F 33.8 °F 36.9 °F 91% 29.83 in 5.0 mi East 8.1 mph - N/A Rain Light Rain
4:14 PM 39.6 °F 34.0 °F 37.2 °F 91% 29.82 in 2.5 mi East 8.1 mph - N/A Rain Rain
4:35 PM 39.9 °F 34.5 °F 37.4 °F 91% 29.82 in 5.0 mi ESE 8.1 mph - N/A Rain Rain
4:55 PM 40.1 °F 35.3 °F 37.6 °F 91% 29.80 in 5.0 mi East 6.9 mph - N/A   Light Drizzle
5:15 PM 40.1 °F 35.3 °F 37.8 °F 91% 29.79 in 2.0 mi ESE 6.9 mph - N/A   Overcast
5:35 PM 40.1 °F 38.0 °F 37.9 °F 92% 29.80 in 1.8 mi East 3.5 mph - N/A   Overcast
5:54 PM 40.3 °F 37.1 °F 38.3 °F 93% 29.80 in 1.5 mi ENE 4.6 mph - N/A   Overcast
6:15 PM 40.3 °F 36.3 °F 38.3 °F 93% 29.78 in 1.5 mi East 5.8 mph - N/A Rain Light Rain
6:35 PM 40.5 °F 38.4 °F 38.5 °F 93% 29.77 in 1.8 mi East 3.5 mph - N/A   Overcast
6:54 PM 40.5 °F - 38.7 °F 93% 29.76 in 1.5 mi Calm Calm - N/A   Overcast
7:15 PM 40.6 °F - 38.8 °F 93% 29.75 in 1.2 mi Calm Calm - N/A   Overcast
7:34 PM 40.6 °F - 38.8 °F 93% 29.75 in 1.0 mi Calm Calm - N/A   Overcast
7:54 PM 41.0 °F - 39.2 °F 93% 29.73 in 0.8 mi Calm Calm - N/A   Overcast
8:15 PM 41.0 °F - 39.2 °F 93% 29.73 in 0.8 mi Calm Calm - N/A   Overcast
8:34 PM 41.0 °F - 39.2 °F 93% 29.72 in 0.8 mi Calm Calm - N/A   Overcast
8:54 PM 41.5 °F - 39.7 °F 93% 29.71 in 0.8 mi Calm Calm - N/A   Overcast
9:15 PM 41.4 °F - 39.6 °F 93% 29.70 in 0.8 mi Calm Calm - N/A   Overcast
9:34 PM 41.0 °F - 39.2 °F 93% 29.69 in 0.8 mi Calm Calm - N/A   Overcast
9:55 PM 42.8 °F - 41.0 °F 93% 29.69 in 0.8 mi Calm Calm - N/A   Overcast
10:14 PM 41.4 °F - 39.6 °F 93% 29.68 in 0.5 mi Calm Calm - N/A Fog Fog
10:34 PM 41.4 °F - 39.6 °F 93% 29.66 in 0.8 mi Calm Calm - N/A Rain Light Rain
10:55 PM 41.7 °F - 39.9 °F 93% 29.66 in 0.8 mi Calm Calm - N/A   Overcast
11:14 PM 41.5 °F - 39.7 °F 93% 29.66 in 1.5 mi Calm Calm - N/A   Overcast
11:35 PM 42.8 °F - 41.0 °F 93% 29.65 in 1.2 mi Calm Calm - N/A Rain Light Rain
11:54 PM 41.9 °F - 40.1 °F 93% 29.64 in 1.2 mi Calm Calm - N/A Rain Light Rain